[[{"header":{"parameterUnit":"m.s-1","parameterCategory":1,"la1":30.2991,"la2":30.254,"lo1":-89.0895,"lo2":-89.0444,"dy":0.0017,"dx":0.0017,"nx":28,"ny":28,"refTime":"2025-08-03T09:00:00:Z","depth":0,"parameterNumber":2,"parameterNumberName":"U-component_of_WINDS"},"data":[0,0,0,0,0,0,0,0,0,0,0,0,0,0,0,0,0,0,0,0,0,0,0,0,0,0,0,0,0,0,0,0,0,0,0,0,0,0,0,0,0,0,0,0,0,0,0,0,0,0,0,0,0,0,0,0,0,0,-1.5668,-1.5668,0,-1.5662,-1.5662,-1.5662,-1.5657,-1.5657,-1.5657,-1.5657,-1.5651,-1.5651,-1.565,0,0,0,0,0,0,0,0,0,0,0,0,0,-1.5673,-1.5673,-1.5668,-1.5668,-1.5668,-1.5662,-1.5662,-1.5662,-1.5657,-1.5657,-1.5657,-1.5657,-1.5651,-1.5651,-1.565,0,0,0,0,0,0,0,0,0,0,0,0,0,-1.5669,-1.5673,-1.5668,-1.5665,-1.5664,-1.5662,-1.5662,-1.5662,-1.5657,-1.5657,-1.5657,-1.5657,-1.5651,-1.5651,-1.565,-1.5651,0,0,-1.565,-1.565,0,0,0,0,0,0,0,0,-1.567,-1.5669,-1.5665,-1.5665,-1.5664,-1.566,-1.5662,-1.5658,-1.5657,-1.566,-1.5657,-1.5657,-1.5654,-1.5653,-1.5652,-1.565,-1.565,-1.565,-1.565,-1.565,-1.565,0,0,0,0,0,0,0,-1.567,-1.5669,-1.5665,-1.5665,-1.5665,-1.5663,-1.5662,-1.5661,-1.5657,-1.566,-1.5659,-1.5659,-1.5654,-1.5653,-1.5652,-1.565,-1.565,-1.565,-1.5649,-1.5649,-1.5647,-1.5647,0,0,0,0,0,0,-1.5671,-1.567,-1.5666,-1.5665,-1.5667,-1.5663,-1.5662,-1.5662,-1.5657,-1.5657,-1.5659,-1.5658,-1.5653,-1.5653,-1.5652,-1.5652,-1.565,-1.5649,-1.5649,-1.5647,-1.5647,-1.5647,0,0,0,0,0,0,-1.5671,-1.5671,-1.5666,-1.5667,-1.5667,-1.5663,-1.5662,-1.5662,-1.5661,-1.5657,-1.5656,-1.5659,-1.5653,-1.5652,-1.5651,-1.5651,-1.5649,-1.5649,-1.5647,-1.5647,-1.5647,-1.5651,0,0,0,0,0,0,-1.5671,-1.5671,-1.5671,-1.5667,-1.5667,-1.5665,-1.5662,-1.5661,-1.566,-1.566,-1.5656,-1.5656,-1.5653,-1.5651,-1.5651,-1.5651,-1.5649,-1.5647,-1.5647,-1.5647,-1.5651,-1.5651,-1.5652,0,0,0,0,0,-1.5671,-1.5672,-1.5671,-1.5671,-1.5667,-1.5665,-1.5665,-1.5662,-1.566,-1.5661,-1.5658,-1.5656,-1.5651,-1.5651,-1.5651,-1.5651,-1.5647,-1.5647,-1.5647,-1.5651,-1.5651,-1.5652,0,0,0,0,0,0,-1.5676,-1.5672,-1.567,-1.567,-1.5668,-1.5664,-1.5665,-1.5662,-1.566,-1.566,-1.5656,-1.5656,-1.5654,-1.5652,-1.5652,-1.565,-1.5649,-1.5649,-1.5652,-1.5652,-1.5653,-1.5653,-1.5649,0,0,0,0,0,-1.5677,-1.5676,-1.5673,-1.5673,-1.5672,-1.5668,-1.5667,-1.5665,-1.5663,-1.5662,-1.5659,-1.5656,-1.5654,-1.5653,-1.5651,-1.5651,-1.5649,-1.565,-1.5651,-1.5651,-1.5651,-1.565,-1.565,-1.5647,-1.5647,-1.5647,0,0,-1.5679,-1.5677,-1.5677,-1.5674,-1.5672,-1.567,-1.5668,-1.5667,-1.5665,-1.5662,-1.566,-1.5658,-1.5655,-1.5653,-1.5653,-1.5652,-1.5652,-1.5651,-1.5652,-1.5651,-1.565,-1.565,-1.5651,-1.5647,-1.5647,-1.5647,0,0,-1.5682,-1.5681,-1.5681,-1.5679,-1.5676,-1.5673,-1.5673,-1.567,-1.5668,-1.5666,-1.5663,-1.5662,-1.5659,-1.5656,-1.5655,-1.5656,-1.5654,-1.5655,-1.5657,-1.5656,-1.5656,-1.5657,-1.5657,-1.5657,-1.5655,-1.5655,-1.5655,0,-1.5685,-1.5684,-1.5681,-1.568,-1.5678,-1.5675,-1.5674,-1.5672,-1.5669,-1.5668,-1.5667,-1.5662,-1.566,-1.5658,-1.5658,-1.5657,-1.5656,-1.5656,-1.5657,-1.5657,-1.5657,-1.5657,-1.5657,-1.5656,-1.5656,-1.5656,-1.5656,0,-1.5687,-1.5686,-1.5686,-1.5683,-1.5681,-1.5681,-1.5677,-1.5676,-1.5674,-1.5671,-1.5669,-1.5666,-1.5663,-1.5662,-1.566,-1.566,-1.5659,-1.5658,-1.5656,-1.5657,-1.5657,-1.5657,-1.5656,-1.5656,-1.5656,-1.5656,0,0,-1.5694,-1.5688,-1.5688,-1.5686,-1.5683,-1.5682,-1.568,-1.5677,-1.5676,-1.5674,-1.5672,-1.5669,-1.5667,-1.5666,-1.5663,-1.5662,-1.5663,-1.566,-1.566,-1.5661,-1.5661,-1.5663,-1.5663,-1.5661,-1.5661,-1.5661,-1.5662,0,-1.5696,-1.5694,-1.5691,-1.5689,-1.5688,-1.5684,-1.5683,-1.568,-1.5678,-1.5676,-1.5673,-1.5671,-1.5669,-1.5667,-1.5666,-1.5663,-1.5663,-1.5663,-1.5659,-1.5659,-1.566,-1.5663,-1.5664,-1.5665,-1.5662,-1.5662,-1.5662,0,-1.5698,-1.5696,-1.5695,-1.569,-1.569,-1.5689,-1.5686,-1.5684,-1.568,-1.5679,-1.5676,-1.5673,-1.5671,-1.567,-1.5666,-1.5666,-1.5665,-1.5663,-1.5663,-1.5662,-1.566,-1.5662,-1.5665,-1.5665,-1.5662,-1.5662,-1.5662,0,-1.5703,-1.5699,-1.5698,-1.5696,-1.5691,-1.5691,-1.5689,-1.5685,-1.5683,-1.568,-1.5679,-1.5676,-1.5674,-1.5671,-1.5668,-1.5667,-1.5665,-1.5663,-1.5663,-1.5663,-1.5662,-1.5662,-1.5664,-1.5661,-1.5661,-1.5661,-1.5661,0,-1.5705,-1.5705,-1.5699,-1.5699,-1.5697,-1.5693,-1.5692,-1.569,-1.5686,-1.5685,-1.5681,-1.5679,-1.5674,-1.5672,-1.5669,-1.5666,-1.5666,-1.5664,-1.5663,-1.5664,-1.5664,-1.5663,-1.5662,-1.5661,-1.5661,-1.5661,-1.5661,0,-1.571,-1.5706,-1.5705,-1.57,-1.5699,-1.5698,-1.5694,-1.5693,-1.569,-1.5687,-1.5687,-1.5682,-1.5679,-1.5675,-1.567,-1.5668,-1.5666,-1.5665,-1.5667,-1.5666,-1.5666,-1.5666,-1.5668,-1.5667,-1.5665,-1.5665,-1.5665,0,-1.5712,-1.5711,-1.5706,-1.5705,-1.5703,-1.5701,-1.5699,-1.5695,-1.5693,-1.5689,-1.5688,-1.5684,-1.5681,-1.5676,-1.5672,-1.5669,-1.5667,-1.5668,-1.5667,-1.5668,-1.5667,-1.5667,-1.5667,-1.5668,-1.5668,-1.5668,-1.5668,0,-1.5715,-1.5714,-1.5711,-1.5708,-1.5706,-1.5703,-1.5701,-1.57,-1.5695,-1.5693,-1.569,-1.5687,-1.5683,-1.5679,-1.5675,-1.5672,-1.5669,-1.5669,-1.5668,-1.5669,-1.5671,-1.567,-1.5668,-1.5669,-1.5669,-1.5669,-1.5669,-1.5669,-1.5718,-1.5717,-1.5714,-1.5711,-1.5708,-1.5706,-1.5704,-1.5701,-1.5698,-1.5694,-1.5692,-1.5689,-1.5685,-1.5679,-1.5676,-1.5673,-1.5672,-1.5672,-1.5671,-1.5671,-1.5672,-1.5671,-1.5672,-1.5672,-1.5672,-1.5672,-1.5672,0,-1.5721,-1.5719,-1.5716,-1.5713,-1.571,-1.5708,-1.5705,-1.5703,-1.57,-1.5697,-1.5694,-1.569,-1.5686,-1.5681,-1.5677,-1.5676,-1.5674,-1.5675,-1.5675,-1.5674,-1.5673,-1.5673,-1.5676,-1.5676,-1.5676,-1.5676,-1.5676,-1.5676,-1.5723,-1.5721,-1.5718,-1.5715,-1.5712,-1.5709,-1.5707,-1.5704,-1.5702,-1.5697,-1.5694,-1.5692,-1.5687,-1.5683,-1.5679,-1.5678,-1.5677,-1.5677,-1.5676,-1.5675,-1.5674,-1.5674,-1.5674,-1.5677,-1.5677,-1.5677,-1.5677,-1.5677]},{"header":{"parameterUnit":"m.s-1","parameterCategory":1,"la1":30.2991,"la2":30.254,"lo1":-89.0895,"lo2":-89.0444,"dy":0.0017,"dx":0.0017,"nx":28,"ny":28,"refTime":"2025-08-03T09:00:00:Z","depth":0,"parameterNumber":3,"parameterNumberName":"V-component_of_WINDS"},"data":[0,0,0,0,0,0,0,0,0,0,0,0,0,0,0,0,0,0,0,0,0,0,0,0,0,0,0,0,0,0,0,0,0,0,0,0,0,0,0,0,0,0,0,0,0,0,0,0,0,0,0,0,0,0,0,0,0,0,3.1911,3.191,0,3.1765,3.1763,3.1762,3.1612,3.161,3.1608,3.1606,3.1449,3.1447,3.1445,0,0,0,0,0,0,0,0,0,0,0,0,0,3.2057,3.2055,3.1912,3.191,3.1908,3.1765,3.1763,3.1761,3.1613,3.161,3.1608,3.1606,3.145,3.1447,3.1444,0,0,0,0,0,0,0,0,0,0,0,0,0,3.196,3.2054,3.1912,3.1817,3.1807,3.1766,3.1763,3.1761,3.1613,3.161,3.1607,3.1604,3.1451,3.1448,3.1444,3.1483,0,0,3.1433,3.1432,0,0,0,0,0,0,0,0,3.1966,3.1955,3.1833,3.1823,3.1812,3.1704,3.1756,3.1667,3.1614,3.1687,3.1606,3.1603,3.1536,3.1525,3.1504,3.1475,3.1468,3.1433,3.1431,3.143,3.1429,0,0,0,0,0,0,0,3.1973,3.196,3.1853,3.1831,3.1818,3.1779,3.1762,3.1739,3.163,3.168,3.1669,3.1654,3.153,3.1508,3.1499,3.1466,3.1433,3.143,3.1428,3.1427,3.146,3.1463,0,0,0,0,0,0,3.1995,3.1967,3.1858,3.1849,3.1883,3.1779,3.176,3.1742,3.163,3.161,3.1657,3.1648,3.1515,3.1504,3.1493,3.1529,3.143,3.1426,3.1424,3.1457,3.146,3.1464,0,0,0,0,0,0,3.1999,3.1987,3.1864,3.1905,3.1886,3.178,3.176,3.174,3.1718,3.1612,3.1591,3.1655,3.1512,3.1498,3.1486,3.1522,3.1425,3.1422,3.1453,3.1458,3.1462,3.1604,0,0,0,0,0,0,3.2003,3.1989,3.2004,3.1907,3.1885,3.1862,3.1763,3.174,3.1714,3.17,3.1605,3.1586,3.1509,3.1493,3.1483,3.1515,3.1419,3.145,3.1455,3.1461,3.1595,3.1612,3.1627,0,0,0,0,0,3.2009,3.2048,3.2005,3.1993,3.1902,3.1864,3.1852,3.1764,3.1717,3.173,3.1662,3.1589,3.1521,3.1493,3.1481,3.1513,3.1447,3.1454,3.146,3.1588,3.1609,3.1627,0,0,0,0,0,0,3.2149,3.2033,3.1985,3.1994,3.1941,3.1839,3.1853,3.179,3.1746,3.1735,3.1627,3.1607,3.1607,3.1559,3.153,3.1543,3.1473,3.1478,3.1575,3.1594,3.1609,3.162,3.1416,0,0,0,0,0,3.2182,3.2164,3.2062,3.208,3.2056,3.196,3.194,3.1878,3.1817,3.1793,3.1724,3.1666,3.1631,3.161,3.1572,3.1589,3.1564,3.1604,3.162,3.1634,3.1638,3.1642,3.1658,3.1486,3.1486,3.1485,0,0,3.2248,3.2183,3.2177,3.2107,3.2058,3.2039,3.1942,3.1926,3.191,3.179,3.1775,3.1723,3.165,3.1653,3.165,3.1612,3.1681,3.1642,3.1654,3.1651,3.165,3.1667,3.1681,3.149,3.1489,3.1489,0,0,3.2358,3.2308,3.2317,3.2271,3.2199,3.2135,3.2138,3.2046,3.2007,3.1992,3.1901,3.188,3.1822,3.1774,3.1742,3.1837,3.1767,3.1827,3.1909,3.1914,3.1927,3.1939,3.197,3.1983,3.1832,3.1833,3.1833,0,3.2448,3.2418,3.2329,3.2319,3.229,3.2184,3.219,3.2149,3.2068,3.205,3.2009,3.1935,3.1879,3.1868,3.1892,3.187,3.1867,3.1836,3.1933,3.1944,3.1953,3.1982,3.1994,3.184,3.1839,3.1839,3.1838,0,3.2532,3.2513,3.2528,3.2455,3.2428,3.2427,3.2335,3.2318,3.2259,3.2199,3.2183,3.2113,3.2058,3.2052,3.1993,3.2032,3.2011,3.1954,3.188,3.1979,3.2004,3.2014,3.1851,3.1849,3.1846,3.1844,0,0,3.2723,3.2603,3.261,3.2575,3.2489,3.2471,3.2465,3.2414,3.2401,3.2349,3.2339,3.2294,3.2241,3.2205,3.214,3.2145,3.2222,3.2086,3.2083,3.2112,3.2259,3.2301,3.2315,3.2177,3.2178,3.218,3.2264,0,3.2817,3.2801,3.272,3.2727,3.2707,3.2606,3.26,3.2546,3.249,3.2463,3.24,3.2369,3.2302,3.228,3.228,3.2213,3.2249,3.2205,3.2163,3.2163,3.2182,3.2328,3.2372,3.2455,3.2273,3.2275,3.2276,0,3.2923,3.288,3.2886,3.28,3.2789,3.2785,3.2732,3.2709,3.2645,3.2603,3.2565,3.2493,3.2478,3.2413,3.2389,3.2362,3.234,3.2304,3.2305,3.2295,3.2224,3.232,3.248,3.2492,3.2291,3.229,3.2289,0,3.306,3.3004,3.2999,3.2973,3.2874,3.2874,3.2832,3.2765,3.274,3.2693,3.2675,3.2627,3.26,3.2563,3.2479,3.244,3.2465,3.2392,3.2428,3.243,3.2435,3.2435,3.2591,3.2426,3.2426,3.2426,3.2425,0,3.3171,3.3177,3.3059,3.3057,3.3061,3.2968,3.2974,3.2922,3.2864,3.2847,3.2758,3.2744,3.2635,3.2608,3.2543,3.2532,3.2521,3.2485,3.2467,3.2492,3.2497,3.2474,3.2465,3.2429,3.2428,3.2427,3.2427,0,3.3323,3.3245,3.3233,3.3141,3.3118,3.3125,3.3045,3.3037,3.2977,3.2958,3.2948,3.2852,3.2816,3.273,3.267,3.2626,3.2632,3.26,3.2654,3.2642,3.2682,3.2678,3.2826,3.284,3.267,3.2671,3.2673,0,3.3397,3.34,3.331,3.3294,3.3257,3.3232,3.3206,3.3115,3.3092,3.302,3.3021,3.2978,3.2939,3.2886,3.2809,3.2763,3.2728,3.2783,3.272,3.2745,3.2726,3.2726,3.2725,3.2796,3.2799,3.2801,3.2802,0,3.3537,3.3499,3.3467,3.3422,3.3395,3.3354,3.3309,3.33,3.3197,3.3176,3.3139,3.3109,3.305,3.3008,3.295,3.2904,3.2835,3.2823,3.2828,3.2852,3.2883,3.2865,3.2689,3.2819,3.2818,3.2816,3.2815,3.2815,3.3651,3.3649,3.3585,3.3552,3.3509,3.3469,3.3458,3.3397,3.3366,3.3312,3.326,3.3228,3.3163,3.3079,3.3039,3.3011,3.2976,3.2984,3.2985,3.2988,3.2999,3.289,3.3,3.2999,3.2999,3.2998,3.2998,0,3.3784,3.3739,3.3711,3.3651,3.3625,3.3567,3.3513,3.3494,3.3469,3.3415,3.338,3.3337,3.3297,3.3219,3.317,3.3163,3.313,3.3153,3.3151,3.3142,3.3034,3.3033,3.3181,3.3181,3.318,3.318,3.318,3.318,3.3851,3.3844,3.3799,3.3769,3.3722,3.3693,3.3667,3.3629,3.3586,3.3544,3.3511,3.3461,3.3397,3.3344,3.3303,3.3281,3.3266,3.3299,3.3267,3.3167,3.3149,3.3133,3.3131,3.3297,3.3297,3.3376,3.3377,3.3378]}]]